Weather History for Branson, MO

Change the Weather History Date:

Tuesday, March 12, 2013

  Actual Average (KHRO) Record (KHRO)
Temperature  
Mean Temperature 42 °F 48 °F  
Max Temperature 53 °F 59 °F 89 °F (1967)
Min Temperature 30 °F 37 °F -10 °F (1948)
Degree Days  
Heating Degree Days 24 18  
Month to date heating degree days 231  
Since 1 July heating degree days 3403  
Cooling Degree Days 0 0  
Month to date cooling degree days 0  
Year to date cooling degree days 0  
Moisture  
Dew Point 20 °F    
Average Humidity 48    
Maximum Humidity 64    
Minimum Humidity 28    
Precipitation  
Precipitation 0.00 in 0.12 in 0.95 in (1986)
Month to date precipitation 1.35  
Year to date precipitation 6.55  
Snow  
Snow 0.00 in 0.10 in 5.00 in (1968)
Month to date snowfall 1.2  
Since 1 July snowfall 10.4  
Snow Depth -    
Sea Level Pressure  
Sea Level Pressure 30.14 in    
Wind  
Wind Speed 4 mph (WNW)    
Max Wind Speed 17 mph    
Max Gust Speed 24 mph    
Visibility 10 miles    
Events      
T = Trace of Precipitation, MM = Missing Value Source: NWS Daily Summary

Daily Weather History Graph

Daily Weather History Graph

Search for Another Location

Airport:

Trip Planner

Search our weather history database for the weather conditions in past years. The results will help you decide how hot, cold, wet, or windy it might be!

Date:

Astronomy

Mar. 12, 2013 Rise Set
Actual Time 7:27 AM CDT 7:17 PM CDT
Civil Twilight 7:01 AM CDT 7:43 PM CDT
Nautical Twilight 6:32 AM CDT 8:13 PM CDT
Astronomical Twilight 6:01 AM CDT 8:43 PM CDT
Moon 7:37 AM CDT (3/12) 8:30 PM CDT (3/12)
Length of Visible Light 12h 41m
Length of Day
11h 50m
New Moon, 1% of the Moon is Illuminated
Mar 12
New Moon
Mar 19
First Quarter
Mar 27
Full
Apr 2
Last Quarter
Apr 10
New

Hourly Weather History & Observations

Time (CDT) Temp. Windchill Dew Point Humidity Pressure Visibility Wind Dir Wind Speed Gust Speed Precip Events Conditions
12:15 AM 33.8 °F - 19.4 °F 56% 30.03 in 10.0 mi Calm Calm - N/A   Clear
12:55 AM 32.0 °F - 19.4 °F 60% 30.04 in 10.0 mi Calm Calm - N/A   Clear
1:15 AM 32.0 °F 28.7 °F 19.4 °F 60% 30.05 in 10.0 mi West 3.5 mph - N/A   Clear
1:35 AM 32.0 °F - 19.4 °F 60% 30.04 in 10.0 mi Calm Calm - N/A   Clear
1:55 AM 32.0 °F - 17.6 °F 55% 30.03 in 10.0 mi Calm Calm - N/A   Clear
2:15 AM 32.0 °F 27.5 °F 17.6 °F 55% 30.05 in 10.0 mi SW 4.6 mph - N/A   Clear
2:35 AM 32.0 °F 28.7 °F 17.6 °F 55% 30.06 in 10.0 mi WSW 3.5 mph - N/A   Clear
2:55 AM 32.0 °F - 17.6 °F 55% 30.06 in 10.0 mi Calm Calm - N/A   Clear
3:15 AM 32.0 °F - 17.6 °F 55% 30.07 in 10.0 mi Calm Calm - N/A   Clear
3:35 AM 32.0 °F - 19.4 °F 60% 30.06 in 10.0 mi Calm Calm - N/A   Partly Cloudy
3:55 AM 32.0 °F - 19.4 °F 60% 30.04 in 10.0 mi Calm Calm - N/A   Mostly Cloudy
4:15 AM 32.0 °F - 17.6 °F 55% 30.04 in 10.0 mi Calm Calm - N/A   Mostly Cloudy
4:35 AM 30.2 °F - 19.4 °F 64% 30.04 in 10.0 mi Calm Calm - N/A   Mostly Cloudy
4:55 AM 32.0 °F - 17.6 °F 55% 30.05 in 10.0 mi Calm Calm - N/A   Scattered Clouds
5:15 AM 32.0 °F - 19.4 °F 60% 30.07 in 10.0 mi Calm Calm - N/A   Mostly Cloudy
5:35 AM 32.0 °F - 19.4 °F 60% 30.07 in 10.0 mi Calm Calm - N/A   Overcast
5:55 AM 33.8 °F - 19.4 °F 56% 30.09 in 10.0 mi Calm Calm - N/A   Overcast
6:15 AM 33.8 °F - 19.4 °F 56% 30.11 in 10.0 mi Calm Calm - N/A   Overcast
6:50 AM 33.8 °F 27.0 °F 17.6 °F 52% 30.11 in 10.0 mi West 8.1 mph - N/A   Mostly Cloudy
7:48 AM 33.8 °F 29.6 °F 17.6 °F 52% 30.13 in 10.0 mi WSW 4.6 mph - N/A   Mostly Cloudy
8:47 AM 37.4 °F 32.8 °F 17.6 °F 45% 30.15 in 10.0 mi WSW 5.8 mph - N/A   Overcast
9:47 AM 41.0 °F 37.1 °F 17.6 °F 39% 30.18 in 10.0 mi West 5.8 mph - N/A   Overcast
10:52 AM 42.8 °F 37.5 °F 17.6 °F 36% 30.19 in 10.0 mi WNW 9.2 mph - N/A   Mostly Cloudy
11:55 AM 46.4 °F 41.9 °F 23.0 °F 40% 30.20 in 10.0 mi NW 9.2 mph - N/A   Mostly Cloudy
12:47 PM 48.2 °F - 23.0 °F 37% 30.20 in 10.0 mi NW 8.1 mph - N/A   Scattered Clouds
1:50 PM 50.0 °F - 21.2 °F 32% 30.19 in 10.0 mi NW 9.2 mph - N/A   Scattered Clouds
2:55 PM 51.8 °F - 19.4 °F 28% 30.16 in 10.0 mi WNW 9.2 mph 19.6 mph N/A   Scattered Clouds
3:50 PM 53.6 °F - 23.0 °F 30% 30.16 in 10.0 mi WNW 11.5 mph 21.9 mph N/A   Scattered Clouds
4:48 PM 53.6 °F - 23.0 °F 30% 30.16 in 10.0 mi NW 16.1 mph 21.9 mph N/A   Scattered Clouds
5:45 PM 51.8 °F - 24.8 °F 35% 30.16 in 10.0 mi WNW 11.5 mph 19.6 mph N/A   Scattered Clouds
6:58 PM 48.2 °F - 24.8 °F 40% 30.18 in 10.0 mi NW 10.4 mph - N/A   Scattered Clouds
7:55 PM 46.4 °F 41.1 °F 26.6 °F 46% 30.20 in 10.0 mi NW 11.5 mph - N/A   Overcast
8:45 PM 44.6 °F 37.2 °F 24.8 °F 46% 30.23 in 10.0 mi NW 17.3 mph 23.0 mph N/A   Mostly Cloudy
8:55 PM 44.6 °F 37.4 °F 23.0 °F 43% 30.23 in 10.0 mi NW 16.1 mph 24.2 mph N/A   Mostly Cloudy
9:15 PM 44.6 °F 39.2 °F 23.0 °F 43% 30.24 in 10.0 mi NW 10.4 mph - N/A   Clear
9:35 PM 42.8 °F 35.8 °F 21.2 °F 42% 30.25 in 10.0 mi NW 13.8 mph 19.6 mph N/A   Clear
9:55 PM 41.0 °F 33.9 °F 19.4 °F 42% 30.26 in 10.0 mi NW 12.7 mph 18.4 mph N/A   Clear
10:35 PM 41.0 °F 33.9 °F 19.4 °F 42% 30.28 in 10.0 mi NW 12.7 mph - N/A   Clear
10:55 PM 39.2 °F 32.5 °F 19.4 °F 45% 30.29 in 10.0 mi NW 10.4 mph 19.6 mph N/A   Clear
11:15 PM 39.2 °F 32.5 °F 19.4 °F 45% 30.30 in 10.0 mi NW 10.4 mph 18.4 mph N/A   Clear
11:35 PM 37.4 °F 30.8 °F 19.4 °F 48% 30.30 in 10.0 mi NW 9.2 mph - N/A   Clear
11:55 PM 37.4 °F 30.3 °F 19.4 °F 48% 30.31 in 10.0 mi NW 10.4 mph - N/A   Clear